Find Starlink 32034

NORAD ID: 60297 Int'l Des: 2024-132 Owner: SPXS Country: US Constellation: starlink operational
LEOCIRCULAR

实时位置

正在加载3D地球...

关于 Starlink 32034

正在加载描述...

即将过境

Passes for default location (London). Set your location on the main map for personalized predictions.

高度历史

Loading altitude history...

两行轨道根数

1 60297U 24132V 26123.38161409 .00000748 00000-0 35848-4 0 9993
2 60297 53.1591 158.4128 0001119 70.9579 289.1544 15.31704517 99935
Epoch: May 3, 2026 • Age: 19 hours

当前状态

高度 485.4 km
速度 7.62 km/s
星下点 -42.57°S, 165.93°W
发射日期 Jul 28, 2024
运行时间 1.7 years
类型 internet

技术详情

分类 Payload
质量 730.00 kg
干质量 700.00 kg
总质量 730.00 kg
长度 0.30 m
直径 4.10 m
跨度 29.00 m
形状 Box + pan
制造商 SPXS
平台类型 Starlink V2M
阶段状态 In Orbit
所有者/国家 SPXS/US

Most Searched